Flag for U.S.A. Weather past 2 weeks in Yonkers, New York, U.S.A.

Now
75 °F

Clear.


Feels Like: 77 °F
Forecast: 67 / 81 °F
Wind: 13 mph from Southwest

Location: Teterboro Airport

Current Time: May 27, 2015 at 12:08:32 AM

Latest Report: May 26, 2015 at 11:51 PM


Visibility: 10 mi

Pressure: 30.14 "Hg

Humidity: 64%

Dew point: 62 °F

Location of YonkersLocation

Historic Weather in Yonkers — Graph

°F

Yonkers temperature yesterday

Maximum temperature yesterday: 89 °F (at 2:51 PM)
Minimum temperature yesterday: 66 °F (at 4:51 AM)
Average temperature yesterday: 78 °F

Past Weeks' High & Low Weather Summary

 TemperatureHumidityPressure
High89 °F (May 26, 2:51 PM)94% (May 12, 5:51 AM)30.41 "Hg (May 12, 5:51 AM)
Low47 °F (May 23, 5:51 AM)17% (May 14, 3:51 PM)29.73 "Hg (May 12, 5:51 PM)
Average66 °F54%30.10 "Hg
* Reported May 11 10:51 PM — May 26 10:51 PM, Yonkers, Weather by CustomWeather, © 2015

Note: Actual official high and low records may vary slightly from our data, if they occured in-between our weather recording intervals... More about our weather records

Advertising

Yonkers weather history for previous 24 hours

 ConditionsComfort  
Time TempWeatherWind HumidityBarometerVisibility
10:51 PM
Tue, May 26
75 °FClear.13 mph62%30.14 "Hg10 mi
9:51 PM77 °FClear.13 mph60%30.13 "Hg10 mi
8:51 PM78 °FSunny.10 mph58%30.11 "Hg10 mi
7:51 PM81 °FSunny.9 mph51%30.10 "Hg10 mi
6:51 PM89 °FSunny.9 mph36%30.10 "Hg10 mi
5:51 PM87 °FSunny.12 mph39%30.11 "Hg10 mi
4:51 PM88 °FSunny.13 mph38%30.11 "Hg10 mi
3:51 PM88 °FSunny.16 mph38%30.11 "Hg10 mi
2:51 PM89 °FPassing clouds.14 mph36%30.13 "Hg10 mi
1:51 PM87 °FSunny.8 mph42%30.14 "Hg10 mi
12:51 PM85 °FSunny.10 mph43%30.16 "Hg10 mi
11:51 AM83 °FSunny.13 mph46%30.17 "Hg10 mi
10:51 AM80 °FSunny.10 mph49%30.19 "Hg10 mi
9:51 AM76 °FSunny.13 mph56%30.19 "Hg10 mi
8:51 AM73 °FSunny.14 mph59%30.21 "Hg10 mi
7:51 AM70 °FSunny.12 mph64%30.21 "Hg10 mi
6:51 AM67 °FSunny.8 mph66%30.20 "Hg10 mi
5:51 AM66 °FClear.8 mph65%30.18 "Hg10 mi
4:51 AM66 °FClear.7 mph63%30.17 "Hg10 mi
3:51 AM68 °FClear.6 mph59%30.16 "Hg10 mi
2:51 AM70 °FClear.12 mph55%30.16 "Hg10 mi
1:51 AM70 °FClear.10 mph59%30.16 "Hg10 mi
12:51 AM71 °FClear.9 mph61%30.16 "Hg10 mi
Weather by CustomWeather, © 2015

See weather overviewHow to use our weather pages